Location: Namasale
(1.5000°N, 32.6167°E)
Time: 05:02:15
(UTC+00:00)

Explorer 7 - All Passes

Search period start: 14 April 2021 00:00
Search period end: 24 April 2021 00:00
Orbit: 484 x 677 km, 50.3° (Epoch: 12 April)

Date Brightness Start Highest point End Pass type
(mag) Time Alt. Az. Time Alt. Az. Time Alt. Az.
14 Apr - 04:40:46 10° NNW 04:45:37 68° NE 04:50:20 10° SE daylight
14 Apr - 16:44:22 10° SSW 16:48:07 72° SE 16:51:59 10° NE visible
15 Apr - 03:08:03 10° NNE 03:09:29 11° NE 03:10:55 10° ENE visible
15 Apr - 04:45:14 10° NW 04:50:02 60° SW 04:54:42 10° SSE daylight
15 Apr - 16:48:54 10° SW 16:52:32 46° NW 16:56:16 10° NNE visible
16 Apr - 03:10:17 10° N 03:13:59 21° NE 03:17:40 10° ESE visible
16 Apr - 04:50:10 10° WNW 04:54:26 30° SW 04:58:36 10° S daylight
16 Apr - 15:14:16 10° SSE 15:16:44 17° SE 15:19:14 10° E daylight
16 Apr - 16:54:05 10° WSW 16:56:59 21° NW 16:59:57 10° N visible
17 Apr - 03:13:52 10° NNW 03:18:27 41° NE 03:22:59 10° ESE visible
17 Apr - 04:55:55 10° W 04:58:51 16° SW 05:01:46 10° SSW daylight
17 Apr - 15:17:41 10° SSW 15:21:09 36° SE 15:24:40 10° ENE daylight
18 Apr - 03:17:59 10° NW 03:22:52 82° NE 03:27:42 10° SE visible
18 Apr - 15:21:49 10° SW 15:25:34 90° ENE 15:29:21 10° NE daylight
19 Apr - 01:44:26 10° NNE 01:46:47 13° NE 01:49:08 10° E visible
19 Apr - 03:22:32 10° NW 03:27:16 50° SW 03:31:58 10° SSE visible
19 Apr - 15:26:31 10° WSW 15:29:58 36° NW 15:33:30 10° NNE daylight
20 Apr - 01:47:15 10° N 01:51:16 25° NE 01:55:15 10° ESE visible
20 Apr - 03:27:38 10° WNW 03:31:41 26° SW 03:35:42 10° S daylight
20 Apr - 13:51:21 10° S 13:54:11 20° SE 13:57:00 10° ENE daylight
20 Apr - 15:31:56 10° W 15:34:26 17° NW 15:36:56 10° N daylight
21 Apr - 01:51:00 10° NNW 01:55:41 48° NE 02:00:24 10° SE visible
21 Apr - 03:33:41 10° W 03:36:08 14° SW 03:38:34 10° SSW daylight
21 Apr - 13:55:00 10° SSW 13:58:35 45° SE 14:02:11 10° NE daylight
22 Apr - 01:55:13 10° NW 02:00:06 85° SW 02:04:59 10° SE visible
22 Apr - 13:59:16 10° SW 14:02:59 72° NW 14:06:44 10° NNE daylight
23 Apr - 00:21:10 10° NNE 00:24:03 16° NE 00:26:58 10° E night (unlit)
23 Apr - 01:59:54 10° NW 02:04:30 42° SW 02:09:08 10° SSE visible
23 Apr - 12:25:50 10° SSE 12:27:09 11° SE 12:28:27 10° ESE daylight
23 Apr - 14:04:07 10° WSW 14:07:24 29° NW 14:10:42 10° N daylight
